• In Hungary
  • List of Countries
  • For 7 days
  • Water Temperature
  • Satellite Maps
  • Weather Map
  • News
  • Weather Widgets
  • user-avatar
    Login

    Hourly Weather Gridino

    Today, 26 May, Saturday

    Time Temperature Precipitation Wind Pressure Humidity
    00:00 +9°C° 0 mm 1 mps 758 mmHg 71%
    01:00 +8°C° 0 mm 1 mps 759 mmHg 73%
    02:00 +7°C° 0 mm 1 mps 759 mmHg 76%
    03:00 +8°C° 0 mm 1 mps 759 mmHg 74%
    04:00 +9°C° 0 mm 1 mps 759 mmHg 73%
    05:00 +9°C° 0 mm 0 mps 760 mmHg 71%
    06:00 +12°C° 0 mm 1 mps 760 mmHg 64%
    07:00 +14°C° 0 mm 1 mps 760 mmHg 57%
    08:00 +16°C° 0 mm 1 mps 761 mmHg 49%
    09:00 +18°C° 0 mm 1 mps 760 mmHg 46%
    10:00 +20°C° 0 mm 1 mps 760 mmHg 43%
    11:00 +21°C° 0 mm 1 mps 760 mmHg 39%
    12:00 +21°C° 0 mm 1 mps 760 mmHg 39%
    13:00 +21°C° 0 mm 2 mps 760 mmHg 39%
    14:00 +22°C° 0 mm 1 mps 759 mmHg 38%
    15:00 +22°C° 0 mm 1 mps 759 mmHg 41%
    16:00 +22°C° 0 mm 1 mps 758 mmHg 43%
    17:00 +20°C° 0 mm 2 mps 758 mmHg 46%
    18:00 +18°C° 0 mm 2 mps 758 mmHg 53%
    19:00 +16°C° 0 mm 1 mps 757 mmHg 60%
    20:00 +14°C° 0 mm 1 mps 757 mmHg 67%
    21:00 +13°C° 0 mm 2 mps 757 mmHg 69%
    22:00 +13°C° 0 mm 2 mps 757 mmHg 71%
    23:00 +12°C° 0 mm 2 mps 758 mmHg 73%

    Tomorrow, 27 May, Sunday

    Time Temperature Precipitation Wind Pressure Humidity
    00:00 +10°C° 0 mm 2 mps 757 mmHg 74%
    01:00 +10°C° 0 mm 3 mps 757 mmHg 75%
    02:00 +10°C° 0 mm 3 mps 757 mmHg 76%
    03:00 +10°C° 0 mm 3 mps 757 mmHg 76%
    04:00 +11°C° 0 mm 3 mps 757 mmHg 76%
    05:00 +11°C° 0 mm 4 mps 757 mmHg 75%
    06:00 +13°C° 0 mm 4 mps 756 mmHg 71%
    07:00 +15°C° 0 mm 4 mps 756 mmHg 66%
    08:00 +18°C° 0 mm 4 mps 756 mmHg 61%
    09:00 +20°C° 0 mm 4 mps 755 mmHg 57%
    10:00 +21°C° 0 mm 4 mps 755 mmHg 54%
    11:00 +22°C° 0 mm 5 mps 754 mmHg 50%
    12:00 +23°C° 0 mm 5 mps 754 mmHg 49%
    13:00 +23°C° 0 mm 5 mps 753 mmHg 48%
    14:00 +25°C° 0 mm 5 mps 753 mmHg 47%
    15:00 +23°C° 0 mm 4 mps 753 mmHg 52%
    16:00 +23°C° 0 mm 4 mps 752 mmHg 56%
    17:00 +22°C° 0 mm 3 mps 752 mmHg 60%
    18:00 +21°C° 0.1 mm 3 mps 752 mmHg 66%
    19:00 +19°C° 0.1 mm 3 mps 752 mmHg 73%
    20:00 +17°C° 0.1 mm 3 mps 753 mmHg 79%
    21:00 +16°C° 0 mm 3 mps 753 mmHg 78%
    22:00 +13°C° 0 mm 3 mps 754 mmHg 77%
    23:00 +11°C° 0 mm 3 mps 754 mmHg 75%

    Day after tomorrow, 28 May, Monday

    Time Temperature Precipitation Wind Pressure Humidity
    00:00 +10°C° 0 mm 3 mps 755 mmHg 73%
    01:00 +9°C° 0 mm 3 mps 755 mmHg 70%
    02:00 +8°C° 0 mm 3 mps 756 mmHg 68%
    03:00 +8°C° 0 mm 3 mps 756 mmHg 65%
    04:00 +8°C° 0 mm 3 mps 757 mmHg 63%
    05:00 +8°C° 0 mm 3 mps 757 mmHg 61%
    06:00 +10°C° 0 mm 3 mps 758 mmHg 55%
    07:00 +11°C° 0 mm 3 mps 758 mmHg 49%
    08:00 +13°C° 0 mm 3 mps 759 mmHg 43%
    09:00 +14°C° 0 mm 3 mps 759 mmHg 40%
    10:00 +16°C° 0 mm 3 mps 759 mmHg 37%
    11:00 +17°C° 0 mm 3 mps 759 mmHg 35%
    12:00 +18°C° 0 mm 3 mps 759 mmHg 35%
    13:00 +18°C° 0 mm 3 mps 759 mmHg 34%
    14:00 +19°C° 0 mm 3 mps 759 mmHg 34%
    15:00 +18°C° 0 mm 3 mps 759 mmHg 37%
    16:00 +18°C° 0 mm 2 mps 758 mmHg 39%
    17:00 +18°C° 0 mm 2 mps 758 mmHg 42%
    18:00 +16°C° 0 mm 2 mps 758 mmHg 48%
    19:00 +14°C° 0 mm 1 mps 758 mmHg 55%
    20:00 +12°C° 0 mm 1 mps 758 mmHg 62%
    21:00 +11°C° 0 mm 1 mps 758 mmHg 63%
    22:00 +10°C° 0 mm 1 mps 759 mmHg 64%
    23:00 +10°C° 0 mm 1 mps 759 mmHg 64%

    29 May, Tuesday

    Time Temperature Precipitation Wind Pressure Humidity
    00:00 +9°C° 0 mm 1 mps 759 mmHg 66%
    01:00 +9°C° 0 mm 1 mps 759 mmHg 67%
    02:00 +8°C° 0 mm 1 mps 759 mmHg 68%
    03:00 +8°C° 0 mm 2 mps 759 mmHg 68%
    04:00 +9°C° 0 mm 2 mps 759 mmHg 68%
    05:00 +9°C° 0 mm 2 mps 759 mmHg 68%
    06:00 +12°C° 0 mm 2 mps 758 mmHg 62%
    07:00 +15°C° 0 mm 2 mps 758 mmHg 56%
    08:00 +17°C° 0 mm 2 mps 758 mmHg 50%
    09:00 +18°C° 0 mm 3 mps 757 mmHg 46%
    10:00 +19°C° 0 mm 3 mps 757 mmHg 43%
    11:00 +21°C° 0 mm 3 mps 756 mmHg 40%
    12:00 +21°C° 0 mm 3 mps 755 mmHg 40%
    13:00 +22°C° 0 mm 3 mps 755 mmHg 39%
    14:00 +23°C° 0 mm 4 mps 754 mmHg 39%
    15:00 +22°C° 0 mm 3 mps 753 mmHg 42%
    16:00 +22°C° 0 mm 3 mps 753 mmHg 45%
    17:00 +22°C° 0 mm 3 mps 752 mmHg 47%
    18:00 +20°C° 0 mm 3 mps 751 mmHg 55%
    19:00 +18°C° 0 mm 3 mps 751 mmHg 63%
    20:00 +16°C° 0 mm 3 mps 750 mmHg 71%
    21:00 +16°C° 0 mm 3 mps 750 mmHg 72%
    22:00 +14°C° 0 mm 3 mps 750 mmHg 74%
    23:00 +14°C° 0 mm 3 mps 749 mmHg 75%

    30 May, Wednesday

    Time Temperature Precipitation Wind Pressure Humidity
    00:00 +14°C° 0 mm 3 mps 749 mmHg 79%
    01:00 +13°C° 0 mm 3 mps 749 mmHg 83%
    02:00 +13°C° 0 mm 3 mps 748 mmHg 87%
    03:00 +14°C° 0 mm 4 mps 748 mmHg 85%
    04:00 +14°C° 0 mm 4 mps 747 mmHg 84%
    05:00 +15°C° 0 mm 4 mps 747 mmHg 82%
    06:00 +18°C° 0 mm 4 mps 746 mmHg 75%
    07:00 +20°C° 0 mm 5 mps 746 mmHg 68%
    08:00 +22°C° 0 mm 6 mps 745 mmHg 61%
    09:00 +23°C° 0 mm 6 mps 744 mmHg 56%
    10:00 +24°C° 0 mm 7 mps 744 mmHg 52%
    11:00 +26°C° 0 mm 7 mps 743 mmHg 47%
    12:00 +26°C° 0 mm 7 mps 743 mmHg 46%
    13:00 +26°C° 0 mm 7 mps 743 mmHg 46%
    14:00 +26°C° 0 mm 7 mps 742 mmHg 45%
    15:00 +24°C° 0 mm 6 mps 742 mmHg 49%
    16:00 +23°C° 0 mm 5 mps 742 mmHg 53%
    17:00 +22°C° 0 mm 4 mps 742 mmHg 56%
    18:00 +20°C° 0 mm 4 mps 742 mmHg 58%
    19:00 +18°C° 0 mm 3 mps 742 mmHg 61%
    20:00 +16°C° 0 mm 2 mps 743 mmHg 63%
    21:00 +14°C° 0 mm 2 mps 743 mmHg 62%
    22:00 +13°C° 0 mm 2 mps 743 mmHg 62%
    23:00 +12°C° 0 mm 2 mps 743 mmHg 62%

    31 May, Thursday

    Time Temperature Precipitation Wind Pressure Humidity
    00:00 +10°C° 0 mm 2 mps 743 mmHg 65%
    01:00 +9°C° 0 mm 2 mps 743 mmHg 67%
    02:00 +8°C° 0 mm 2 mps 744 mmHg 70%
    03:00 +9°C° 0 mm 3 mps 744 mmHg 69%
    04:00 +9°C° 0 mm 3 mps 744 mmHg 68%
    05:00 +9°C° 0 mm 3 mps 745 mmHg 68%
    06:00 +10°C° 0 mm 4 mps 745 mmHg 62%
    07:00 +11°C° 0 mm 4 mps 745 mmHg 57%
    08:00 +12°C° 0 mm 4 mps 746 mmHg 52%
    09:00 +13°C° 0 mm 4 mps 746 mmHg 47%
    10:00 +13°C° 0 mm 4 mps 746 mmHg 43%
    11:00 +14°C° 0 mm 4 mps 746 mmHg 39%
    12:00 +14°C° 0 mm 4 mps 746 mmHg 36%
    13:00 +14°C° 0 mm 4 mps 746 mmHg 34%
    14:00 +15°C° 0 mm 4 mps 747 mmHg 32%
    15:00 +14°C° 0 mm 4 mps 747 mmHg 33%
    16:00 +14°C° 0 mm 4 mps 747 mmHg 35%
    17:00 +13°C° 0 mm 4 mps 747 mmHg 36%
    18:00 +11°C° 0 mm 3 mps 747 mmHg 43%
    19:00 +10°C° 0 mm 3 mps 747 mmHg 49%
    20:00 +8°C° 0 mm 2 mps 748 mmHg 55%
    21:00 +7°C° 0 mm 2 mps 748 mmHg 58%
    22:00 +6°C° 0 mm 2 mps 748 mmHg 60%
    23:00 +5°C° 0 mm 2 mps 749 mmHg 62%
    Show more